23:58
Airports
History
Links
Donate
Help keep this website running!
PayPal
Bitcoin
This page is community maintained. The information is intended for PC simulator navigation or reference.
Always use approved charts for navigation.
ME94
Clark Field
Clark Field (ME94)
Union, Maine, United States (4862)
4
Lat/Lng:44° 13' 0.28" N / 69° 17' 28.16" W
44.216744 / -69.291155
Elevation:54'ft / 16mMSL
ID / ICAO:ME94
Runways:1
Longest:09-27
Grass 547m / 1,795ft
Nearby Weather23:56 GMT 2017-12-12
Nearby weather at KRKD, Knox County Rgnl located 14.4 nautical miles from ME94
Altimeter: 29.39
Visibility: 5.0 statute miles
Wind: 10 knots (from 030°)
Temp: 3°c / 37°f
Humidity: 100.0%

METAR: KRKD 122356Z AUTO 03010KT 5SM RA BR BKN003 OVC009 03/03 A2939 RMK AO2 PRESFR SLP953 P0010 60034 T00330028 10061 21006 56037

(Powered by phpweather)
Nearby VORs <50NM
Nearby NDBs
Runway 09 / 27
Dimensions:547.2 x 24.4m 1795' x 80'ft
Surface:Grass
Runway 09 [A]Runway 27 [B]
Heading:072°TH 252°TH
Lat:
Lng:
44° 12' 57.53"N
69° 17' 39.95"W
44° 13' 3.02"N
69° 17' 16.37"W
User Notes and Comments
44° 13' 0.28" N / 69° 17' 28.16" W
Distance To
Airport ID:
Nearby Airports
(R) Robinson Ridge Fld 7.4 NM
ME34 WSW 246°
(R) Bald Mountain 8.4 NM
ME14 E 83°
4 Kimberly 10.2 NM
ME56 S 183°
4 Youngtown Field 10.4 NM
ME29 ENE 66°
(U) Knox County Rgnl 14.4 NM
KRKD ( WX ) SE 138°
(U) Belfast Muni 19.2 NM
KBST NE 46°
(U) Islesboro 19.7 NM
57B ENE 72°
VFR Chart
Flight Planning at SkyVector.com